Zurück zum Katalog

STARLINK-31784

AktivKommunikationVLEO
NORAD 59618·PAYLOAD·🇺🇸 United States

Gestartet Apr 28, 2024 von Cape Canaveral Space Force Station

Loading…

Nächste Überflüge (nächste 24 Stunden)

TLE

AktuellSource: CelesTrak SupGP

Epoche: Sep 14, 2026, 21:19 UTC

1 59618C 24080T   26257.88868056  .00059032  00000+0  21382-2 0  2577
2 59618  43.0042  53.1850 0001422 278.6065 113.9920 15.27547622    16

Verfolge STARLINK-31784 in Echtzeit mit AllMySat

Download on the App Store